Location: Rocktram
(38.2574°N, 122.2805°W)
Time: 03:09:44
(UTC+00:00)

Cosmos 2227 Rocket - Pass Details

Date: 30 March 2020
Orbit: 837 x 847 km, 71.0° (Epoch: 31 May)

Event Time Altitude Azimuth Distance (km) Brightness Sun altitude
Exits shadow 11:39:05 16° 160° (SSE) 2,022 4.1 -26.4°
Maximum altitude 11:42:46 34° 104° (ESE) 1,345 3.6 -25.8°
Drops below altitude 10° 11:47:48 10° 41° (NE) 2,458 5.5 -24.9°
Sets 11:50:26 0° 32° (NNE) 3,398 6.3 -24.5°
